This demonstration page uses our WeatherBlox Daily Observations layout. Learn more.

Left ArrowRight Arrow

39.12711, -84.51439

Hourly Observations for July 18, 2021

Temp ( °F °C ) Dew Point ( °F °C ) Humidity (%) Winds ( mph kmh ) Pressure ( in mb ) Visibility ( mi km ) Precip ( " mm )
12:53 am 00:53 Clear 69 20.6 67 19.4 93 93 N N/A 30.14 1021 10 16 N/A
1:53 am 01:53 Clear 67 19.4 67 19.4 100 100 N N/A 30.14 1021 10 16 N/A
2:53 am 02:53 Mostly Cloudy 67 19.4 66 18.9 97 97 N N/A 30.14 1021 10 16 N/A
3:53 am 03:53 Clear 66 18.9 65 18.3 96 96 N N/A 30.14 1021 9 14 0.00 0.00
4:53 am 04:53 Clear 65 18.3 64 17.8 97 97 NE 3 6 30.16 1021 10 16 N/A
5:53 am 05:53 Clear 64 17.8 63 17.2 96 96 N N/A 30.17 1022 10 16 N/A
6:53 am 06:53 Sunny 64 17.8 63 17.2 96 96 NE 3 6 30.17 1022 10 16 N/A
7:53 am 07:53 Sunny 67 19.4 65 18.3 93 93 N N/A 30.19 1022 10 16 N/A
8:53 am 08:53 Sunny 69 20.6 64 17.8 84 84 NNE 5 7 30.20 1023 10 16 N/A
9:53 am 09:53 Sunny 74 23.3 64 17.8 71 71 ENE 6 9 30.21 1023 10 16 N/A
10:53 am 10:53 Mostly Sunny 75 23.9 59 15 58 58 E 10 17 30.21 1023 10 16 N/A
11:53 am 11:53 Mostly Sunny 77 25 62 16.7 60 60 E 8 13 30.21 1023 10 16 N/A
12:53 pm 12:53 Sunny 79 26.1 61 16.1 54 54 ENE 7 11 30.18 1022 10 16 N/A
1:53 pm 13:53 Sunny 80 26.7 63 17.2 56 56 NE 9 15 30.18 1022 10 16 N/A
2:53 pm 14:53 Sunny 82 27.8 64 17.8 55 55 NE 7 11 30.16 1021 10 16 N/A
3:53 pm 15:53 Sunny 82 27.8 64 17.8 55 55 NE 10 17 30.14 1021 10 16 N/A
4:53 pm 16:53 Sunny 83 28.3 63 17.2 51 51 NE 10 17 30.14 1021 10 16 N/A
5:53 pm 17:53 Sunny 82 27.8 62 16.7 51 51 E 7 11 30.13 1020 10 16 N/A
6:53 pm 18:53 Mostly Sunny 81 27.2 64 17.8 57 57 E 8 13 30.12 1020 10 16 N/A
7:53 pm 19:53 Sunny 78 25.6 63 17.2 60 60 NE 7 11 30.12 1020 10 16 N/A
8:53 pm 20:53 Sunny 73 22.8 66 18.9 79 79 N N/A 30.13 1020 10 16 N/A
9:53 pm 21:53 Clear 69 20.6 65 18.3 87 87 N N/A 30.14 1021 10 16 N/A
10:53 pm 22:53 Clear 68 20 64 17.8 87 87 N N/A 30.15 1021 10 16 N/A
11:53 pm 23:53 Clear 66 18.9 64 17.8 93 93 N N/A 30.15 1021 10 16 N/A

Powered by AerisWeather